Regional Weather Roundup
Issued by NWS

Home | Current Version | Previous Version | Text Only | Print | Product List | Glossary On
Versions: 1 2 3 4 5 6 7 8 9 10 11 12 13 14 15 16 17 18 19 20 21 22 23 24 25 26 27 28 29 30 31 32 33 34 35 36 37 38 39 40 41 42 43 44 45 46 47 48 49 50
000
ASUS46 KSEW 031210
RWRWA

WASHINGTON REGIONAL WEATHER ROUNDUP
NATIONAL WEATHER SERVICE SEATTLE WA
500 AM PDT FRI JUL 03 2015

NOTE:"FAIR" INDICATES FEW OR NO CLOUDS BELOW 12,000 FEET WITH NO
SIGNIFICANT WEATHER AND/OR OBSTRUCTIONS TO VISIBILITY.

WAZ505-507>509-031300-
SEATTLE, TACOMA, EVERETT, AND VICINITY

CITY           SKY/WX    TMP DP  RH WIND       PRES   REMARKS
EVERETT        CLEAR     62  52  69 CALM      29.97R
6HR MIN TEMP:  62; 6HR MAX TEMP:  71;

BOEING FIELD   CLEAR     68  53  58 VRB3      29.95R
6HR MIN TEMP:  68; 6HR MAX TEMP:  81;

RENTON         CLEAR     65  58  78 CALM      29.94R
6HR MIN TEMP:  65; 6HR MAX TEMP:  78;

SEATAC AIRPORT CLEAR     64  54  69 NW3       29.96S
6HR MIN TEMP:  64; 6HR MAX TEMP:  82;

JBLM-MCCHORD   CLEAR     57  54  89 S3        29.96R
6HR MIN TEMP:  57; 6HR MAX TEMP:  74;

PUYALLUP       FAIR      57  57 100 CALM      29.97R
BREMERTON      CLEAR     55  52  88 CALM      29.99R
6HR MIN TEMP:  54; 6HR MAX TEMP:  70;

JBLM-FT LEWIS  CLEAR     62  56  79 W5        29.96R
6HR MIN TEMP:  60; 6HR MAX TEMP:  78;

TACOMA NARROWS CLEAR     63  56  78 CALM      29.97R
6HR MIN TEMP:  63; 6HR MAX TEMP:  77;

$$

WAZ001-503-506-510-514-515-031300-
NORTH INTERIOR

CITY           SKY/WX    TMP DP  RH WIND       PRES   REMARKS
BELLINGHAM     CLEAR     65  57  75 CALM      29.95S
6HR MIN TEMP:  62; 6HR MAX TEMP:  75;

FRIDAY HARBOR  CLEAR     53  51  93 CALM      29.96S
6HR MIN TEMP:  51; 6HR MAX TEMP:  57;

EASTSOUND      CLEAR     63  55  77 CALM      29.94R
PORT ANGELES   CLEAR     54  52  93 S3        29.95F
6HR MIN TEMP:  54; 6HR MAX TEMP:  60;

PORT TOWNSEND  FAIR      52  52 100 CALM      29.96S
NAS WHIDBEY    CLEAR     56  52  86 N3        29.99S
6HR MIN TEMP:  55; 6HR MAX TEMP:  62;

ARLINGTON      CLEAR     55  50  82 N3        29.97R
6HR MIN TEMP:  55; 6HR MAX TEMP:  70;

BURLINGTON     CLEAR     68  55  64 N10       29.96R
$$

WAZ020-022-039-040-504-511-512-031300-
SOUTHWEST INTERIOR

CITY           SKY/WX    TMP DP  RH WIND       PRES   REMARKS
SHELTON        CLOUDY    55  54  96 W8        29.95S
6HR MIN TEMP:  55; 6HR MAX TEMP:  68;

OLYMPIA        CLEAR     57  53  86 CALM      29.97R
6HR MIN TEMP:  57; 6HR MAX TEMP:  74;

CHEHALIS       FAIR      57  57 100 CALM      29.97R
KELSO          PTCLDY    61  54  77 N6        30.00R
6HR MIN TEMP:  61; 6HR MAX TEMP:  70;

VANCOUVER      CLEAR     66  53  63 N3        29.94R
6HR MIN TEMP:  65; 6HR MAX TEMP:  79;

SCAPPOOSE, OR  CLEAR     59  54  83 CALM      29.94R
6HR MIN TEMP:  59; 6HR MAX TEMP:  77;

PORTLAND, OR   PTCLDY    68  54  60 CALM      29.94R
6HR MIN TEMP:  68; 6HR MAX TEMP:  79;

$$

WAZ021-516-517-031300-
WASHINGTON COAST

CITY           SKY/WX    TMP DP  RH WIND       PRES   REMARKS
FORKS          CLOUDY    51  51 100 CALM      29.97R FOG
6HR MIN TEMP:  50; 6HR MAX TEMP:  58;

HOQUIAM        CLOUDY    57  56  96 CALM      29.99S FOG
6HR MIN TEMP:  57; 6HR MAX TEMP:  59;

ASTORIA, OR    CLOUDY    60  57  89 NW8       29.99F
6HR MIN TEMP:  58; 6HR MAX TEMP:  60;

$$

WAZ019-023-024-040-518-519-031300-
CASCADE MOUNTAINS AND COLUMBIA GORGE

CITY           SKY/WX    TMP DP  RH WIND       PRES   REMARKS
TROUTDALE, OR  CLEAR     61  56  83 CALM      29.93R
6HR MIN TEMP:  61; 6HR MAX TEMP:  79;

THE DALLES, OR CLEAR     74  55  51 W6        29.85R
6HR MIN TEMP:  74; 6HR MAX TEMP:  87;

$$

WAZ026-027-041>044-520-521-031300-
EAST SLOPES

CITY           SKY/WX    TMP DP  RH WIND       PRES   REMARKS
OMAK           PTCLDY    73  48  41 N12       29.88R
6HR MIN TEMP:  69; 6HR MAX TEMP:  81;

WENATCHEE      CLEAR     78  50  37 NW9       29.88S
6HR MIN TEMP:  78; 6HR MAX TEMP:  90;

ELLENSBURG     CLEAR     75  47  36 NW20      29.91S
6HR MIN TEMP:  75; 6HR MAX TEMP:  81;

YAKIMA         CLEAR     79  41  25 NW9G21    29.88R
6HR MIN TEMP:  79; 6HR MAX TEMP:  88;

$$

WAZ028-034-035-031300-
COLUMBIA BASIN

CITY           SKY/WX    TMP DP  RH WIND       PRES   REMARKS
EPHRATA        CLEAR     78  49  35 N10       29.84S
6HR MIN TEMP:  78; 6HR MAX TEMP:  87;

MOSES LAKE     CLEAR     65  51  60 NE3       29.85R
6HR MIN TEMP:  65; 6HR MAX TEMP:  89;

PASCO          CLEAR     66  59  78 CALM      29.83R
6HR MIN TEMP:  64; 6HR MAX TEMP:  81;

HERMISTON, OR  CLEAR     64  52  64 E6        29.84R
6HR MIN TEMP:  64; 6HR MAX TEMP:  84;

$$

WAZ036>038-031300-
NORTHEAST WASHINGTON

CITY           SKY/WX    TMP DP  RH WIND       PRES   REMARKS
SPOKANE GEIGER CLOUDY    69  45  41 CALM      29.92R
6HR MIN TEMP:  67; 6HR MAX TEMP:  84;

SPOKANE FELTS  CLEAR     66  53  63 E3        29.91S
6HR MIN TEMP:  64; 6HR MAX TEMP:  76;

FAIRCHILD AFB  CLEAR     63  39  41 E2        29.93R
6HR MIN TEMP:  61; 6HR MAX TEMP:  82;

COEURDALENE,ID CLEAR     59  48  67 E6        29.92S
6HR MIN TEMP:  59; 6HR MAX TEMP:  73;

DEER PARK      CLEAR     58  48  69 MISG      29.92S
6HR MIN TEMP:  54; 6HR MAX TEMP:  68;

$$

WAZ029>033-031300-
SOUTHEAST WASHINGTON

CITY           SKY/WX    TMP DP  RH WIND       PRES   REMARKS
PULLMAN        CLEAR     56  48  74 CALM      29.95R
6HR MIN TEMP:  54; 6HR MAX TEMP:  66;

LEWISTON, ID   CLEAR     72  48  42 NE3       29.88R
6HR MIN TEMP:  71; 6HR MAX TEMP:  86;

WALLA WALLA    CLEAR     80  47  31 S10       29.87R
6HR MIN TEMP:  71; 6HR MAX TEMP:  84;

PENDLETON, OR  CLEAR     68  43  40 SE9       29.90R
6HR MIN TEMP:  66; 6HR MAX TEMP:  81;

$$



USA.gov is the U.S. government's official web portal to all federal, state and local government web resources and services.